User: anonymous   Login
Location: Caltech
(34.1382°N, 118.1253°W)
Time: 04:39:03
(UTC-08:00)
Language:

ASTRO E2 - Orbit

View from above orbital plane
View from above orbital plane
View from above satellite
View from above satellite

Ground track
Ground track

The orbit data is extracted from the following two-line orbital elements,

1 28773U 05025A   17055.05265524  .00001570  00000-0  76343-4 0  9996
2 28773  31.3834 309.9425 0005042 290.7279  69.2827 15.15524911640176
Epoch (UTC): 24 February 2017 01:15:49
Eccentricity: 0.0005042
inclination: 31.3834°
perigee height: 516 km
apogee height: 523 km
right ascension of ascending node: 309.9425°
argument of perigee: 290.7279°
revolutions per day: 15.15524911
mean anomaly at epoch: 69.2827°
orbit number at epoch: 64017

The dashed part of the orbit path shows where the satellite is in the earth's shadow,  

DLR